SCP
-0 0 0 -0 0 0 -0 -0 -0 -0 0 0 0 0 0 0 0 -0 -0 0 0 0 0 0 0 0 0 1 1 0 0 0 0 0 0 0 0 0 -0 0 0 0 0 0
-0 0 0 0 0 -0 -0 -0 -0 -0 -0 0 0 0 0 0 -0 -0 -0 0 0 0 0 0 0 0 0 0 0 0 0 0 0 0 0 0 0 0 0 0 0 0 0 0
0 -0 0 0 0 0 -0 -0 -0 0 0 -0 0 0 0 0 -0 -0 -0 0 0 0 0 0 1 0 0 0 0 0 0 0 0 0 0 0 0 -0 -0 -0 0 0 0 0
0 0 0 -0 -0 -0 0 0 0 -0 0 -0 0 0 0 -0 -0 0 0 0 0 0 0 0 0 0 0 0 0 0 0 0 0 0 0 0 0 0 0 0 0 0 0 0
0 0 0 -0 -0 0 0 -0 -0 0 0 0 0 0 -0 0 0 0 0 0 0 0 0 0 0 0 0 0 0 0 0 0 0 0 0 -0 0 0 0 0 0 0 0 0
-0 0 0 -0 0 0 0 0 0 0 0 0 0 0 0 0 0 0 0 0 0 0 0 0 0 0 0 0 0 0 0 0 0 0 0 0 0 0 0 0 -0 0 0 0
-0 -0 -0 0 0 0 0 0 0 0 0 0 0 0 0 0 0 0 0 0 0 0 0 0 0 0 0 0 0 0 0 0 0 0 0 0 0 0 0 0 0 0 0 0
-0 -0 0 -0 0 0 0 0 0 0 0 0 0 0 0 0 0 0 0 0 0 0 0 0 0 0 0 0 0 0 0 0 0 0 0 0 0 0 0 0 0 0 0 0
0 0 0 0 0 0 0 0 0 0 0 0 0 0 -0 0 0 0 0 0 0 0 0 0 0 0 0 0 0 0 0 0 0 0 0 0 0 0 0 0 0 0 0 0
0 0 0 0 0 0 0 0 0 0 0 0 0 0 -0 0 0 0 0 0 0 0 0 0 0 0 0 0 0 -0 0 0 0 0 0 0 0 0 0 0 0 0 0 0
0 0 0 0 0 0 0 0 0 0 0 0 0 0 0 0 0 0 0 0 0 0 0 0 0 0 0 0 0 0 0 0 0 0 0 0 0 0 0 0 0 0 0 0
0 0 0 0 0 0 0 0 0 0 0 0 0 0 0 0 0 0 0 0 0 0 0 0 0 0 0 0 0 0 0 0 0 0 0 0 0 0 0 0 0 0 0 0
0 0 0 0 0 0 0 0 0 0 0 0 0 0 0 0 0 0 0 0 0 0 0 0 0 0 0 0 0 0 0 0 0 0 0 0 0 0 0 0 0 0 0 0
0 0 0 0 0 0 0 0 -0 0 0 0 0 0 0 0 0 0 0 0 0 0 0 0 0 0 0 0 0 0 0 0 0 0 0 0 0 0 0 0 0 0 0 0
0 -0 0 0 0 0 -0 -0 -0 0 0 0 0 0 0 0 0 0 0 0 0 0 0 0 0 0 0 0 0 0 0 0 0 0 0 0 0 0 0 0 0 0 0 0
0 0 -0 0 0 0 0 -0 0 -0 0 0 0 0 0 0 0 0 0 0 0 0 0 0 0 0 0 0 0 0 0 0 0 0 0 0 0 0 0 0 0 0 0 0
0 0 0 0 0 0 0 0 0 0 0 0 0 0 0 0 0 0 0 0 0 0 0 0 0 0 0 0 0 0 0 0 0 0 0 0 0 0 0 0 0 0 0 0
0 0 0 0 0 0 0 0 0 0 -0 0 0 0 0 0 0 0 0 0 0 0 0 0 0 0 0 0 0 0 0 0 0 0 0 0 0 0 0 0 0 0 0 0
-0 0 0 0 0 0 0 0 0 0 0 0 0 0 0 0 0 0 0 0 0 0 0 0 0 0 0 0 0 0 0 0 0 0 0 0 0 0 0 0 0 0 0 0
0 0 0 0 0 0 0 0 -0 -0 0 0 0 0 0 0 0 0 0 0 0 0 0 0 0 0 0 0 0 0 0 0 0 0 0 0 0 0 0 0 0 0 0 0
-0 0 0 0 0 0 0 0 -0 0 0 0 0 0 0 0 0 0 0 0 0 0 0 0 0 0 0 0 0 0 0 0 0 0 0 0 0 0 0 0 0 0 0 0
0 -0 0 0 0 0 0 0 0 0 0 0 0 0 0 0 0 0 0 0 0 0 0 0 0 0 0 0 0 0 0 0 0 0 0 0 0 0 0 0 0 0 0 0
-0 0 0 -0 0 0 -0 0 0 0 0 0 0 0 0 0 0 0 0 0 0 0 0 0 0 0 0 0 0 0 0 0 0 0 0 0 0 0 0 0 0 0 0 0
0 0 -0 0 0 0 0 0 0 0 0 0 0 0 0 0 0 0 0 0 0 0 0 0 0 0 0 0 0 0 0 0 0 0 0 0 0 0 0 0 0 0 0 0
0 0 0 0 0 0 0 0 0 0 0 0 0 0 0 0 0 0 0 0 0 0 0 0 0 0 0 0 0 0 0 0 0 0 0 0 0 0 0 0 0 0 0 0
-0 0 0 0 0 0 0 0 0 0 0 0 0 0 0 0 0 0 0 0 0 0 0 0 0 0 0 0 0 0 0 0 0 0 0 0 0 0 0 0 0 0 0 0
Wind_Speed_500mb
36 5 10 16 27 23 29 21 39 46 27 17 27 30 24 41 46 35 41 27 34 38 19 42 41 39 49 53 57 55 50 38 32 32 33 33 25 24 23 26 27 38 34 31
13 13 7 21 31 24 26 29 36 11 32 15 14 17 8 9 18 13 18 20 31 34 51 12 23 18 39 39 20 3 32 27 33 32 31 33 15 23 25 30 28 34 34 37
18 6 27 34 21 13 10 16 23 31 18 18 5 6 13 9 19 3 12 18 34 36 6 15 31 34 42 50 27 10 34 36 35 36 43 24 26 35 14 38 30 34 41 42
7 14 2 51 42 14 8 23 27 29 9 4 10 7 13 13 14 3 26 34 39 34 16 16 39 15 40 32 9 25 31 31 26 9 19 25 20 25 28 27 10 14 21 26
22 28 27 36 47 28 17 32 27 18 6 4 10 9 5 8 13 14 33 38 36 17 10 22 21 22 32 24 13 12 31 32 25 12 13 5 20 29 26 19 20 19 31 37
17 36 40 49 38 34 14 31 19 11 5 4 6 6 3 6 8 13 10 48 49 46 32 12 18 24 6 14 17 18 26 20 13 27 5 10 24 33 33 42 41 43 48 49
22 24 19 8 7 12 19 15 9 9 5 10 6 7 6 7 7 17 14 36 45 41 34 30 20 28 15 15 12 7 5 11 15 6 6 20 31 27 31 31 32 40 43 43
9 14 14 9 1 5 9 6 7 6 6 11 12 7 10 13 35 45 34 36 30 39 46 49 38 33 34 27 15 16 18 12 4 11 22 17 17 23 23 32 34 35 32 33
7 10 24 17 20 4 2 8 15 8 11 10 7 3 11 22 24 20 35 44 39 36 37 43 45 43 32 28 21 11 12 14 12 12 8 5 8 16 22 24 29 45 53 56
6 8 10 6 3 18 8 11 13 4 2 8 9 9 6 1 6 19 30 44 42 32 34 37 33 23 20 19 18 16 20 14 10 4 6 19 21 25 30 40 52 57 58 63
10 6 9 15 8 5 3 7 12 7 5 7 6 6 13 5 2 11 35 44 37 40 45 37 25 15 16 14 19 20 11 17 12 14 19 26 33 42 50 46 40 38 61 62
18 6 4 2 13 25 8 11 13 9 10 8 11 10 9 10 18 24 34 30 39 43 38 22 8 19 26 13 21 11 4 7 15 22 30 41 44 36 45 39 46 63 72 67
8 5 6 9 10 10 8 5 8 3 3 15 14 9 9 14 4 23 22 27 24 19 14 9 5 7 16 15 5 6 10 13 20 29 40 35 36 38 43 46 61 70 67 64
7 14 15 14 12 10 11 25 20 19 7 9 9 10 9 14 9 21 18 12 28 23 9 9 20 21 17 7 4 8 14 22 29 33 33 36 38 39 34 49 67 62 59 63
7 10 15 19 22 12 30 46 24 14 20 8 19 17 18 14 14 18 14 8 14 11 18 19 15 10 6 9 11 15 21 25 26 32 34 38 40 28 38 58 72 59 58 54
4 11 20 8 12 8 26 49 4 27 11 28 27 12 16 26 29 18 14 10 15 19 11 5 1 2 3 10 13 16 18 26 27 31 39 38 28 36 48 71 55 49 50 56
8 9 9 11 9 11 11 3 9 13 14 16 13 14 20 13 18 21 18 21 19 15 15 14 8 5 8 8 11 20 24 21 24 30 36 25 34 45 60 63 50 43 47 50
2 5 7 13 8 3 12 2 17 26 20 18 17 14 22 22 13 18 28 25 15 5 2 5 5 9 14 16 13 18 25 25 22 28 28 35 40 49 62 47 50 44 46 51
18 8 9 8 12 12 2 2 5 5 14 10 19 15 24 17 29 30 22 18 14 13 11 7 4 11 17 20 19 21 22 28 25 30 36 39 40 47 43 42 47 39 45 51
7 12 10 6 10 4 13 19 37 41 3 17 25 19 18 9 8 5 10 7 14 10 4 10 14 16 21 22 23 28 30 27 30 31 37 36 41 46 40 36 46 41 37 43
7 5 7 7 3 8 7 5 47 13 8 15 14 8 7 6 15 21 16 14 6 3 5 11 13 14 17 19 25 28 31 32 28 31 33 36 43 44 40 42 42 40 39 38
5 4 2 4 5 3 21 3 7 7 4 0 3 17 21 16 10 4 15 14 10 6 11 19 19 19 18 22 29 32 35 33 29 34 33 39 41 38 35 39 31 33 23 35
4 12 9 13 9 9 19 20 13 10 8 14 6 7 9 12 10 9 9 11 9 16 16 19 20 21 23 23 25 28 31 31 36 34 35 42 46 20 36 32 27 23 29 42
9 12 4 12 5 18 22 17 18 19 5 5 12 8 9 7 4 10 12 14 18 24 23 22 24 31 29 27 30 34 36 36 35 36 39 40 36 26 23 30 32 26 32 38
6 14 10 8 10 32 23 16 10 7 12 9 7 8 7 14 19 23 25 27 27 28 31 29 33 33 35 39 37 38 33 34 36 39 41 41 36 28 28 28 31 26 30 32
41 5 8 3 17 20 13 12 11 11 8 9 12 16 20 23 24 28 33 31 32 34 26 26 32 38 47 56 53 40 37 38 40 40 41 41 41 36 34 31 31 29 24 27
Wind_Direction_500mb
274 304 105 25 329 290 294 281 282 298 211 164 217 83 112 108 112 154 159 181 257 293 277 331 193 195 199 208 201 212 201 209 219 237 252 250 260 273 269 271 266 262 264 271
293 257 217 113 261 242 256 281 304 332 336 348 38 74 100 78 94 100 134 191 257 346 357 339 118 224 204 191 128 294 249 222 222 234 228 257 232 272 297 285 286 273 274 282
255 290 331 325 272 264 308 309 306 303 300 2 54 66 16 23 111 317 322 308 321 336 21 238 222 188 204 214 226 281 218 229 232 242 258 236 221 280 281 266 279 263 272 272
145 67 58 286 293 255 273 276 277 297 22 31 41 272 17 330 352 10 316 336 322 336 295 236 183 256 208 219 102 225 228 242 244 303 276 298 298 254 280 287 284 275 291 289
239 224 220 245 252 246 223 247 258 259 184 112 352 75 211 308 10 358 339 327 347 327 222 205 252 241 203 215 247 198 229 244 246 340 136 88 260 266 262 270 283 267 277 289
263 271 208 225 243 242 217 245 284 278 117 40 194 107 345 351 341 320 333 82 88 86 103 132 184 193 297 247 194 268 244 262 154 170 256 255 273 273 277 282 273 289 284 288
272 262 270 129 50 25 358 10 343 325 338 235 89 73 252 334 289 225 231 93 85 88 114 131 136 143 152 183 204 190 178 153 177 221 265 286 282 295 297 288 287 290 297 302
292 321 25 29 273 172 257 329 105 295 349 320 30 45 296 257 272 284 108 91 76 82 93 103 114 119 119 105 103 118 131 121 348 324 278 312 315 300 306 308 312 321 323 316
302 326 317 79 343 315 303 76 179 64 344 281 180 218 334 261 272 347 114 95 93 94 95 100 106 110 105 99 88 92 53 37 24 33 22 62 323 304 304 308 310 313 317 314
250 353 354 197 327 35 121 153 70 129 302 316 166 112 224 347 253 54 77 105 111 109 111 111 114 104 60 60 68 71 61 37 90 8 309 297 315 326 326 325 325 316 313 322
348 186 301 325 72 39 336 78 68 110 137 159 301 206 206 233 349 85 101 136 133 135 127 124 111 97 61 60 108 107 95 62 39 356 331 324 327 328 324 328 340 331 328 329
17 31 48 162 102 33 265 151 143 146 201 222 220 255 235 234 298 83 106 107 91 109 121 124 81 130 121 83 112 97 43 327 323 324 324 323 329 339 339 331 330 329 336 330
8 6 9 354 356 19 283 253 178 179 34 216 183 237 206 249 201 109 97 135 137 124 87 53 21 114 126 132 127 7 340 329 320 318 327 346 346 334 330 328 334 334 327 328
203 186 191 203 215 138 316 276 226 191 174 186 168 151 195 245 156 96 92 95 134 134 102 134 85 134 141 124 14 329 324 324 325 336 350 348 339 330 333 337 337 334 340 338
4 280 274 266 244 178 223 253 249 216 229 190 161 144 196 215 135 106 116 72 120 102 111 99 98 91 63 34 8 334 325 328 337 348 345 346 332 317 336 336 343 346 351 350
42 300 311 299 353 6 209 242 127 270 85 113 129 152 166 153 126 125 118 138 103 108 112 73 69 186 359 355 340 318 316 336 340 337 338 341 311 325 335 339 351 351 358 1
65 264 351 299 331 25 315 225 31 23 52 115 127 162 120 114 139 151 161 127 98 91 98 95 65 23 339 328 327 322 327 333 333 331 339 332 332 333 336 342 350 354 3 8
153 211 88 256 264 161 253 184 112 119 230 116 131 120 135 145 178 194 165 146 133 116 359 342 334 337 333 326 314 303 316 320 322 327 329 326 328 331 339 344 344 344 357 0
221 202 138 96 292 290 196 295 307 65 359 85 111 93 114 112 97 78 98 111 122 126 119 104 359 316 313 311 307 306 301 314 312 319 316 316 325 334 341 342 347 352 354 357
65 101 98 113 239 319 339 344 304 320 53 55 72 70 97 74 100 220 103 116 127 110 37 325 310 294 309 293 296 302 299 297 298 308 313 306 325 334 336 330 344 342 341 356
345 8 138 238 273 97 298 334 284 271 209 57 63 70 130 117 148 158 167 160 186 278 296 301 301 305 302 276 294 296 294 296 297 304 306 302 318 326 331 331 337 338 330 346
276 343 22 313 1 181 197 200 285 169 90 78 132 77 89 90 85 33 204 188 181 210 274 296 277 280 283 286 292 292 289 295 284 300 292 301 312 315 319 322 336 338 341 339
207 192 178 192 227 184 185 115 84 60 33 20 53 87 98 79 48 334 200 191 241 247 279 277 271 271 282 291 290 285 289 286 289 290 280 297 311 302 312 317 331 325 320 333
244 166 227 178 207 182 161 123 85 43 97 40 29 84 108 103 301 272 275 263 260 257 260 267 273 281 269 269 283 290 294 290 283 278 283 291 303 303 305 312 317 305 310 325
230 141 221 113 72 107 103 84 65 39 34 32 10 354 277 266 250 244 252 258 259 263 264 268 270 266 274 281 284 292 286 279 275 281 283 286 293 291 295 306 309 301 313 314
341 231 20 144 86 109 96 78 59 51 359 311 295 281 278 271 276 273 259 263 273 279 278 282 292 287 294 291 279 276 276 276 278 275 274 280 286 284 279 289 290 309 305 305
Wind_Speed_850mb
36 5 10 16 27 23 29 21 39 46 27 17 27 30 24 41 46 35 41 27 34 38 19 42 41 39 49 53 57 55 50 38 32 32 33 33 25 24 23 26 27 38 34 31
13 13 7 21 31 24 26 29 36 11 32 15 14 17 8 9 18 13 18 20 31 34 51 12 23 18 39 39 20 3 32 27 33 32 31 33 15 23 25 30 28 34 34 37
18 6 27 34 21 13 10 16 23 31 18 18 5 6 13 9 19 3 12 18 34 36 6 15 31 34 42 50 27 10 34 36 35 36 43 24 26 35 14 38 30 34 41 42
7 14 2 51 42 14 8 23 27 29 9 4 10 7 13 13 14 3 26 34 39 34 16 16 39 15 40 32 9 25 31 31 26 9 19 25 20 25 28 27 10 14 21 26
22 28 27 36 47 28 17 32 27 18 6 4 10 9 5 8 13 14 33 38 36 17 10 22 21 22 32 24 13 12 31 32 25 12 13 5 20 29 26 19 20 19 31 37
17 36 40 49 38 34 14 31 19 11 5 4 6 6 3 6 8 13 10 48 49 46 32 12 18 24 6 14 17 18 26 20 13 27 5 10 24 33 33 42 41 43 48 49
22 24 19 8 7 12 19 15 9 9 5 10 6 7 6 7 7 17 14 36 45 41 34 30 20 28 15 15 12 7 5 11 15 6 6 20 31 27 31 31 32 40 43 43
9 14 14 9 1 5 9 6 7 6 6 11 12 7 10 13 35 45 34 36 30 39 46 49 38 33 34 27 15 16 18 12 4 11 22 17 17 23 23 32 34 35 32 33
7 10 24 17 20 4 2 8 15 8 11 10 7 3 11 22 24 20 35 44 39 36 37 43 45 43 32 28 21 11 12 14 12 12 8 5 8 16 22 24 29 45 53 56
6 8 10 6 3 18 8 11 13 4 2 8 9 9 6 1 6 19 30 44 42 32 34 37 33 23 20 19 18 16 20 14 10 4 6 19 21 25 30 40 52 57 58 63
10 6 9 15 8 5 3 7 12 7 5 7 6 6 13 5 2 11 35 44 37 40 45 37 25 15 16 14 19 20 11 17 12 14 19 26 33 42 50 46 40 38 61 62
18 6 4 2 13 25 8 11 13 9 10 8 11 10 9 10 18 24 34 30 39 43 38 22 8 19 26 13 21 11 4 7 15 22 30 41 44 36 45 39 46 63 72 67
8 5 6 9 10 10 8 5 8 3 3 15 14 9 9 14 4 23 22 27 24 19 14 9 5 7 16 15 5 6 10 13 20 29 40 35 36 38 43 46 61 70 67 64
7 14 15 14 12 10 11 25 20 19 7 9 9 10 9 14 9 21 18 12 28 23 9 9 20 21 17 7 4 8 14 22 29 33 33 36 38 39 34 49 67 62 59 63
7 10 15 19 22 12 30 46 24 14 20 8 19 17 18 14 14 18 14 8 14 11 18 19 15 10 6 9 11 15 21 25 26 32 34 38 40 28 38 58 72 59 58 54
4 11 20 8 12 8 26 49 4 27 11 28 27 12 16 26 29 18 14 10 15 19 11 5 1 2 3 10 13 16 18 26 27 31 39 38 28 36 48 71 55 49 50 56
8 9 9 11 9 11 11 3 9 13 14 16 13 14 20 13 18 21 18 21 19 15 15 14 8 5 8 8 11 20 24 21 24 30 36 25 34 45 60 63 50 43 47 50
2 5 7 13 8 3 12 2 17 26 20 18 17 14 22 22 13 18 28 25 15 5 2 5 5 9 14 16 13 18 25 25 22 28 28 35 40 49 62 47 50 44 46 51
18 8 9 8 12 12 2 2 5 5 14 10 19 15 24 17 29 30 22 18 14 13 11 7 4 11 17 20 19 21 22 28 25 30 36 39 40 47 43 42 47 39 45 51
7 12 10 6 10 4 13 19 37 41 3 17 25 19 18 9 8 5 10 7 14 10 4 10 14 16 21 22 23 28 30 27 30 31 37 36 41 46 40 36 46 41 37 43
7 5 7 7 3 8 7 5 47 13 8 15 14 8 7 6 15 21 16 14 6 3 5 11 13 14 17 19 25 28 31 32 28 31 33 36 43 44 40 42 42 40 39 38
5 4 2 4 5 3 21 3 7 7 4 0 3 17 21 16 10 4 15 14 10 6 11 19 19 19 18 22 29 32 35 33 29 34 33 39 41 38 35 39 31 33 23 35
4 12 9 13 9 9 19 20 13 10 8 14 6 7 9 12 10 9 9 11 9 16 16 19 20 21 23 23 25 28 31 31 36 34 35 42 46 20 36 32 27 23 29 42
9 12 4 12 5 18 22 17 18 19 5 5 12 8 9 7 4 10 12 14 18 24 23 22 24 31 29 27 30 34 36 36 35 36 39 40 36 26 23 30 32 26 32 38
6 14 10 8 10 32 23 16 10 7 12 9 7 8 7 14 19 23 25 27 27 28 31 29 33 33 35 39 37 38 33 34 36 39 41 41 36 28 28 28 31 26 30 32
41 5 8 3 17 20 13 12 11 11 8 9 12 16 20 23 24 28 33 31 32 34 26 26 32 38 47 56 53 40 37 38 40 40 41 41 41 36 34 31 31 29 24 27
Wind_Direction_850mb
274 304 105 25 329 290 294 281 282 298 211 164 217 83 112 108 112 154 159 181 257 293 277 331 193 195 199 208 201 212 201 209 219 237 252 250 260 273 269 271 266 262 264 271
293 257 217 113 261 242 256 281 304 332 336 348 38 74 100 78 94 100 134 191 257 346 357 339 118 224 204 191 128 294 249 222 222 234 228 257 232 272 297 285 286 273 274 282
255 290 331 325 272 264 308 309 306 303 300 2 54 66 16 23 111 317 322 308 321 336 21 238 222 188 204 214 226 281 218 229 232 242 258 236 221 280 281 266 279 263 272 272
145 67 58 286 293 255 273 276 277 297 22 31 41 272 17 330 352 10 316 336 322 336 295 236 183 256 208 219 102 225 228 242 244 303 276 298 298 254 280 287 284 275 291 289
239 224 220 245 252 246 223 247 258 259 184 112 352 75 211 308 10 358 339 327 347 327 222 205 252 241 203 215 247 198 229 244 246 340 136 88 260 266 262 270 283 267 277 289
263 271 208 225 243 242 217 245 284 278 117 40 194 107 345 351 341 320 333 82 88 86 103 132 184 193 297 247 194 268 244 262 154 170 256 255 273 273 277 282 273 289 284 288
272 262 270 129 50 25 358 10 343 325 338 235 89 73 252 334 289 225 231 93 85 88 114 131 136 143 152 183 204 190 178 153 177 221 265 286 282 295 297 288 287 290 297 302
292 321 25 29 273 172 257 329 105 295 349 320 30 45 296 257 272 284 108 91 76 82 93 103 114 119 119 105 103 118 131 121 348 324 278 312 315 300 306 308 312 321 323 316
302 326 317 79 343 315 303 76 179 64 344 281 180 218 334 261 272 347 114 95 93 94 95 100 106 110 105 99 88 92 53 37 24 33 22 62 323 304 304 308 310 313 317 314
250 353 354 197 327 35 121 153 70 129 302 316 166 112 224 347 253 54 77 105 111 109 111 111 114 104 60 60 68 71 61 37 90 8 309 297 315 326 326 325 325 316 313 322
348 186 301 325 72 39 336 78 68 110 137 159 301 206 206 233 349 85 101 136 133 135 127 124 111 97 61 60 108 107 95 62 39 356 331 324 327 328 324 328 340 331 328 329
17 31 48 162 102 33 265 151 143 146 201 222 220 255 235 234 298 83 106 107 91 109 121 124 81 130 121 83 112 97 43 327 323 324 324 323 329 339 339 331 330 329 336 330
8 6 9 354 356 19 283 253 178 179 34 216 183 237 206 249 201 109 97 135 137 124 87 53 21 114 126 132 127 7 340 329 320 318 327 346 346 334 330 328 334 334 327 328
203 186 191 203 215 138 316 276 226 191 174 186 168 151 195 245 156 96 92 95 134 134 102 134 85 134 141 124 14 329 324 324 325 336 350 348 339 330 333 337 337 334 340 338
4 280 274 266 244 178 223 253 249 216 229 190 161 144 196 215 135 106 116 72 120 102 111 99 98 91 63 34 8 334 325 328 337 348 345 346 332 317 336 336 343 346 351 350
42 300 311 299 353 6 209 242 127 270 85 113 129 152 166 153 126 125 118 138 103 108 112 73 69 186 359 355 340 318 316 336 340 337 338 341 311 325 335 339 351 351 358 1
65 264 351 299 331 25 315 225 31 23 52 115 127 162 120 114 139 151 161 127 98 91 98 95 65 23 339 328 327 322 327 333 333 331 339 332 332 333 336 342 350 354 3 8
153 211 88 256 264 161 253 184 112 119 230 116 131 120 135 145 178 194 165 146 133 116 359 342 334 337 333 326 314 303 316 320 322 327 329 326 328 331 339 344 344 344 357 0
221 202 138 96 292 290 196 295 307 65 359 85 111 93 114 112 97 78 98 111 122 126 119 104 359 316 313 311 307 306 301 314 312 319 316 316 325 334 341 342 347 352 354 357
65 101 98 113 239 319 339 344 304 320 53 55 72 70 97 74 100 220 103 116 127 110 37 325 310 294 309 293 296 302 299 297 298 308 313 306 325 334 336 330 344 342 341 356
345 8 138 238 273 97 298 334 284 271 209 57 63 70 130 117 148 158 167 160 186 278 296 301 301 305 302 276 294 296 294 296 297 304 306 302 318 326 331 331 337 338 330 346
276 343 22 313 1 181 197 200 285 169 90 78 132 77 89 90 85 33 204 188 181 210 274 296 277 280 283 286 292 292 289 295 284 300 292 301 312 315 319 322 336 338 341 339
207 192 178 192 227 184 185 115 84 60 33 20 53 87 98 79 48 334 200 191 241 247 279 277 271 271 282 291 290 285 289 286 289 290 280 297 311 302 312 317 331 325 320 333
244 166 227 178 207 182 161 123 85 43 97 40 29 84 108 103 301 272 275 263 260 257 260 267 273 281 269 269 283 290 294 290 283 278 283 291 303 303 305 312 317 305 310 325
230 141 221 113 72 107 103 84 65 39 34 32 10 354 277 266 250 244 252 258 259 263 264 268 270 266 274 281 284 292 286 279 275 281 283 286 293 291 295 306 309 301 313 314
341 231 20 144 86 109 96 78 59 51 359 311 295 281 278 271 276 273 259 263 273 279 278 282 292 287 294 291 279 276 276 276 278 275 274 280 286 284 279 289 290 309 305 305